Location: Waco, TX
(31.5480°N, 97.1670°W)
Time: 13:49:58

ISS - Pass Details

Date: 15 March 2018
Orbit: 403 x 406 km, 51.6° (Epoch: 21 March)

Event Time Altitude Azimuth Distance (km) Brightness Sun altitude
Rises 09:25:18 0° 292° (WNW) 2,317 -0.6 21.6°
Reaches altitude 10° 09:28:16 10° 262° (W) 1,453 -1.5 22.2°
Maximum altitude 09:29:48 13° 234° (SW) 1,295 -1.5 22.5°
Drops below altitude 10° 09:31:19 10° 206° (SSW) 1,448 -1.0 22.8°
Sets 09:34:17 0° 176° (S) 2,301 0.3 23.4°
